Puerto Vallarta, Mexico

2:41 PM CDT on June 27, 2017 (GMT -0500)
Lic Gustavo Diaz Ordaz International

Weather History for MMPR - November, 2012

Change the Weather History Date:

Tuesday, November 20, 2012

  Actual Average Record
Temperature  
Mean Temperature 77 °F -  
Max Temperature 86 °F 81 °F 91 °F (2015)
Min Temperature 68 °F 63 °F 62 °F (2002)
Cooling Degree Days 12    
Growing Degree Days 27 (Base 50)    
Moisture  
Dew Point 70 °F    
Average Humidity 79    
Maximum Humidity 89    
Minimum Humidity 62    
Precipitation  
Precipitation 0.00 in - - ()
Sea Level Pressure  
Sea Level Pressure 29.88 in    
Wind  
Wind Speed 1 mph ()    
Max Wind Speed 9 mph    
Max Gust Speed -    
Visibility 6.3 miles    
Events      
Averages and records for this station are not official NWS values.
T = Trace of Precipitation, MM = Missing Value Source: Averaged Metar Reports

Daily Weather History Graph

Daily Weather History Graph

Search for Another Location

Airport or City:

Trip Planner

Search our weather history database for the weather conditions in past years. The results will help you decide how hot, cold, wet, or windy it might be!

Date:

Astronomy

Nov. 20, 2012 Rise Set
Actual Time 7:14 AM CST 6:19 PM CST
Civil Twilight 6:50 AM CST 6:42 PM CST
Nautical Twilight 6:23 AM CST 7:09 PM CST
Astronomical Twilight 5:57 AM CST 7:36 PM CST
Moon 1:16 PM CST (11/20) 12:28 AM CST (11/20)
Length of Visible Light 11h 51m
Length of Day
11h 04m
First Quarter, 51% of the Moon is Illuminated
Nov 20
First Quarter
Nov 28
Full
Dec 6
Last Quarter
Dec 13
New
Dec 19
First Quarter

Hourly Weather History & Observations

Time (CST) Temp. Heat Index Dew Point Humidity Pressure Visibility Wind Dir Wind Speed Gust Speed Precip Events Conditions
12:45 AM 73.4 °F - 69.8 °F 88% 29.90 in 5.0 mi Calm Calm - N/A   Clear
1:47 AM 73.4 °F - 69.8 °F 88% 29.89 in 5.0 mi NE 5.8 mph - N/A   Clear
2:47 AM 71.6 °F - 68.0 °F 88% 29.86 in 5.0 mi ENE 2.3 mph - N/A   Clear
3:47 AM 71.6 °F - 68.0 °F 88% 29.87 in 7.0 mi Calm Calm - N/A   Clear
4:45 AM 69.8 °F - 66.2 °F 88% 29.88 in 7.0 mi Calm Calm - N/A   Clear
5:50 AM 69.8 °F - 66.2 °F 88% 29.87 in 7.0 mi Calm Calm - N/A   Clear
6:48 AM 68.0 °F - 64.4 °F 88% 29.89 in 6.0 mi Calm Calm - N/A   Clear
7:47 AM 68.0 °F - 64.4 °F 88% 29.89 in 6.0 mi Calm Calm - N/A   Mostly Cloudy
8:43 AM 71.6 °F - 66.2 °F 83% 29.90 in 6.0 mi Calm Calm - N/A   Overcast
9:45 AM 77.0 °F - 68.0 °F 74% 29.91 in 6.0 mi Calm Calm - N/A   Overcast
10:44 AM 82.4 °F 85.4 °F 68.0 °F 62% 29.92 in 8.0 mi Calm Calm - N/A   Overcast
11:46 AM 84.2 °F 88.4 °F 69.8 °F 62% 29.90 in 8.0 mi Calm Calm - N/A   Mostly Cloudy
12:52 PM 86.0 °F 91.8 °F 71.6 °F 62% 29.89 in 8.0 mi Calm Calm - N/A   Mostly Cloudy
1:50 PM 86.0 °F 91.8 °F 71.6 °F 62% 29.86 in 8.0 mi SW 9.2 mph - N/A   Mostly Cloudy
2:49 PM 84.2 °F 90.9 °F 73.4 °F 70% 29.82 in 6.0 mi SSW 6.9 mph - N/A   Mostly Cloudy
3:49 PM 84.2 °F 89.6 °F 71.6 °F 66% 29.83 in 6.0 mi SSW 6.9 mph - N/A   Mostly Cloudy
4:49 PM 82.4 °F 87.2 °F 71.6 °F 70% 29.83 in 5.0 mi South 4.6 mph - N/A   Overcast
5:49 PM 82.4 °F 88.2 °F 73.4 °F 74% 29.85 in 5.0 mi Calm Calm - N/A   Overcast
6:49 PM 82.4 °F 88.2 °F 73.4 °F 74% 29.87 in 5.0 mi Calm Calm - N/A   Overcast
7:49 PM 82.4 °F 88.2 °F 73.4 °F 74% 29.90 in 5.0 mi SW 5.8 mph - N/A   Overcast
8:49 PM 78.8 °F - 75.2 °F 89% 29.91 in 5.0 mi Calm Calm - N/A   Mostly Cloudy
9:44 PM 78.8 °F - 75.2 °F 89% 29.92 in 6.0 mi Calm Calm - N/A   Overcast
10:44 PM 78.8 °F - 75.2 °F 89% 29.93 in 8.0 mi Calm Calm - N/A   Mostly Cloudy
11:43 PM 77.0 °F - 73.4 °F 89% 29.92 in 8.0 mi Calm Calm - N/A   Mostly Cloudy